FW6766 Weather Reports


Display with metric or nautical units.
time (UTC)temp
F
wind
direction
speed
MPH
gust
MPH
rain 1hr
in
rain 24hr
in
rain mn
in
humidity
%
barometer
mb
20260510043017 63 0.0 0.0 0.00 0.00 0.00 88 1015.8
20260510042036 63 0.0 0.0 0.00 0.00 0.00 87 1015.8
20260510041016 64 0.0 0.0 0.00 0.00 0.00 87 1015.9
20260510040016 64 0.0 0.0 0.00 0.00 0.00 87 1016.1
20260510035016 64 0.0 0.0 0.00 0.00 0.00 87 1016.1
20260510034036 64 0.0 0.0 0.00 0.00 0.00 86 1016.2
20260510033017 64 0.0 0.0 0.00 0.00 0.00 86 1016.0
20260510032016 64 0.0 0.0 0.00 0.00 0.00 86 1015.9
20260510031016 64 0.0 0.0 0.00 0.00 0.00 85 1015.9
20260510030016 64 0.0 0.0 0.00 0.00 0.00 84 1015.8
20260510025016 64 0.0 0.0 0.00 0.00 0.00 84 1015.6
20260510024016 65 0.0 0.0 0.00 0.00 0.00 84 1015.5
20260510023017 65 0.0 0.0 0.00 0.00 0.00 83 1015.2
20260510022017 65 0.0 0.0 0.00 0.00 0.00 82 1015.1
20260510021016 65 0.0 0.0 0.00 0.00 0.00 82 1015.0
20260510020016 65 225 1.0 3.0 0.00 0.00 0.00 82 1015.0
20260510015016 65 225 1.0 2.0 0.00 0.00 0.00 81 1014.8
20260510014016 65 180 1.0 2.0 0.00 0.00 0.00 81 1014.6
20260510013016 66 180 1.0 3.0 0.00 0.00 0.00 81 1014.7
20260510012016 66 180 1.0 4.0 0.00 0.00 0.00 80 1014.7
20260510011017 66 0.0 0.0 0.00 0.00 0.00 80 1014.5
20260510010016 66 0.0 0.0 0.00 0.00 0.00 79 1014.3
20260510005016 67 0.0 0.0 0.00 0.00 0.00 78 1014.3
20260510004015 67 0.0 0.0 0.00 0.00 0.00 77 1014.1
20260510003016 67 0.0 0.0 0.00 0.00 0.00 77 1014.1
20260510002016 68 0.0 2.0 0.00 0.00 0.00 76 1014.2
20260510001015 68 180 1.0 3.0 0.00 0.00 0.00 76 1013.9
20260510000016 68 0 1.0 3.0 0.00 0.00 0.00 75 1013.9
20260509235015 69 0.0 0.0 0.00 0.00 0.00 75 1013.9
20260509234036 69 0.0 0.0 0.00 0.00 0.00 73 1013.9
20260509233016 70 0.0 0.0 0.00 0.00 0.00 72 1013.6
20260509232015 70 0.0 0.0 0.00 0.00 0.00 71 1013.4
20260509231015 71 0.0 0.0 0.00 0.00 0.00 71 1013.5
20260509230015 71 0.0 4.0 0.00 0.00 0.00 71 1013.4
20260509225016 71 203 1.0 5.0 0.00 0.00 0.00 69 1013.4
20260509224035 72 0.0 0.0 0.00 0.00 0.00 68 1013.4
20260509223015 72 0.0 0.0 0.00 0.00 0.00 64 1013.4
20260509222015 72 0.0 0.0 0.00 0.00 0.00 64 1013.1
20260509221015 73 0.0 0.0 0.00 0.00 0.00 63 1013.2
20260509220018 73 0.0 0.0 0.00 0.00 0.00 65 1013.1
20260509215018 73 0.0 0.0 0.00 0.00 0.00 62 1013.2
20260509214017 73 0.0 2.0 0.00 0.00 0.00 67 1013.2
20260509213017 73 0.0 1.0 0.00 0.00 0.00 67 1012.9
20260509212017 73 0.0 1.0 0.00 0.00 0.00 64 1012.7
20260509211017 74 180 1.0 6.0 0.00 0.00 0.00 62 1012.7
20260509210017 74 0.0 2.0 0.00 0.00 0.00 61 1012.9
20260509205037 75 203 1.0 3.0 0.00 0.00 0.00 60 1012.8
20260509204018 74 180 1.0 2.0 0.00 0.00 0.00 61 1013.0
20260509203017 75 203 1.0 3.0 0.00 0.00 0.00 61 1013.0
20260509202037 75 180 2.0 9.0 0.00 0.00 0.00 59 1013.2
20260509201017 75 0.0 6.0 0.00 0.00 0.00 61 1013.2
20260509200137 73 0 2.0 6.0 0.00 0.00 0.00 63 1013.1
20260509195017 73 203 1.0 4.0 0.00 0.00 0.00 62 1013.1
20260509194018 72 203 1.0 3.0 0.00 0.00 0.00 65 1013.1
20260509193017 72 315 1.0 3.0 0.00 0.00 0.00 67 1013.3
20260509192017 71 225 1.0 4.0 0.00 0.00 0.00 65 1013.3
20260509191016 71 0.0 0.0 0.00 0.00 0.00 68 1013.3
20260509190017 70 225 1.0 5.0 0.00 0.00 0.00 67 1013.5
20260509185017 70 203 1.0 3.0 0.00 0.00 0.00 69 1013.3
20260509184017 70 0 1.0 3.0 0.00 0.00 0.00 68 1013.4
20260509183017 70 0 1.0 3.0 0.00 0.00 0.00 69 1013.5
20260509182017 70 225 2.0 5.0 0.00 0.00 0.00 71 1013.8
20260509181017 70 158 2.0 5.0 0.00 0.00 0.00 72 1013.7
20260509180017 70 203 2.0 5.0 0.00 0.00 0.00 72 1013.7
20260509175016 69 270 1.0 3.0 0.00 0.00 0.00 74 1013.4
20260509174016 67 225 1.0 8.0 0.00 0.00 0.00 76 1013.7
20260509173017 67 203 2.0 7.0 0.00 0.00 0.00 77 1013.8
20260509172017 67 203 2.0 5.0 0.00 0.00 0.00 80 1013.9
20260509171016 66 0.0 0.0 0.00 0.00 0.00 84 1014.0
20260509170017 66 203 1.0 5.0 0.00 0.00 0.00 84 1013.9
20260509165157 65 203 1.0 3.0 0.00 0.00 0.00 87 1014.0
20260509164016 64 203 1.0 4.0 0.00 0.00 0.00 88 1014.0
20260509163016 64 0.0 7.0 0.00 0.00 0.00 89 1014.3
20260509162036 63 225 1.0 4.0 0.00 0.00 0.00 90 1014.2
20260509161017 63 0.0 0.0 0.00 0.00 0.00 92 1014.4
20260509160016 63 0.0 0.0 0.00 0.00 0.00 91 1014.1
20260509155016 62 0.0 0.0 0.00 0.00 0.00 91 1014.1
20260509154017 62 0.0 2.0 0.00 0.00 0.00 92 1014.2
20260509153016 62 0.0 2.0 0.00 0.00 0.00 93 1014.2
20260509152016 62 158 1.0 5.0 0.00 0.00 0.00 92 1014.3
20260509151016 62 0.0 0.0 0.00 0.00 0.00 91 1014.7
20260509150017 62 0.0 0.0 0.00 0.00 0.00 91 1014.7
20260509145016 62 0.0 0.0 0.00 0.00 0.00 90 1014.6
20260509144016 62 0.0 0.0 0.00 0.00 0.00 90 1014.7
20260509143016 62 225 1.0 3.0 0.00 0.00 0.00 89 1014.6
20260509142016 62 225 1.0 3.0 0.00 0.00 0.00 88 1014.6
20260509141016 62 270 1.0 3.0 0.00 0.00 0.00 88 1014.5
20260509140016 62 203 1.0 5.0 0.00 0.00 0.00 88 1014.4
20260509135017 62 0.0 3.0 0.00 0.00 0.00 87 1014.1
20260509134016 62 0.0 0.0 0.00 0.00 0.00 88 1013.8
20260509133016 62 0.0 0.0 0.00 0.00 0.00 88 1013.6
20260509132016 62 0.0 0.0 0.00 0.00 0.00 88 1013.4
20260509131036 62 0.0 0.0 0.00 0.00 0.00 88 1013.5
20260509130016 61 0.0 0.0 0.00 0.00 0.00 88 1013.4
20260509125016 61 0.0 0.0 0.00 0.00 0.00 88 1013.2
20260509124016 61 0.0 0.0 0.00 0.00 0.00 89 1013.3
20260509123016 61 0.0 0.0 0.00 0.00 0.00 90 1013.2
20260509122015 60 0.0 0.0 0.00 0.00 0.00 90 1013.4
20260509121016 60 0.0 0.0 0.00 0.00 0.00 91 1013.3
20260509120016 60 0.0 0.0 0.00 0.00 0.00 91 1013.4
20260509115015 60 0.0 0.0 0.00 0.00 0.00 91 1013.4
20260509114015 59 0.0 0.0 0.00 0.00 0.00 91 1013.6
20260509113016 59 0.0 0.0 0.00 0.00 0.00 91 1013.6
20260509112036 59 0.0 0.0 0.00 0.00 0.00 91 1013.6
20260509111015 59 0.0 0.0 0.00 0.00 0.00 91 1013.7
20260509110015 59 0.0 0.0 0.00 0.00 0.00 91 1013.4
20260509105015 59 0.0 0.0 0.00 0.00 0.00 92 1013.2
20260509104015 59 0.0 0.0 0.00 0.00 0.00 91 1013.2
20260509103016 58 0.0 0.0 0.00 0.00 0.00 92 1013.1
20260509102015 58 0.0 0.0 0.00 0.00 0.00 92 1013.2
20260509101015 58 0.0 0.0 0.00 0.00 0.00 92 1013.3
20260509100018 58 0.0 0.0 0.00 0.00 0.00 93 1013.8
20260509095017 58 0.0 0.0 0.00 0.00 0.00 93 1013.9
20260509094017 58 0.0 0.0 0.00 0.00 0.00 93 1013.8
20260509093017 58 0.0 0.0 0.00 0.00 0.00 93 1013.7
20260509092038 58 0.0 0.0 0.00 0.00 0.00 93 1013.6
20260509091017 58 0.0 0.0 0.00 0.00 0.00 93 1013.6
20260509090018 57 0.0 0.0 0.00 0.00 0.00 93 1013.9
20260509085017 57 0.0 0.0 0.00 0.00 0.00 93 1013.8
20260509084015 57 0.0 0.0 0.00 0.00 0.00 93 1013.6
20260509083037 57 0.0 0.0 0.00 0.00 0.00 93 1013.5
20260509082017 57 0.0 0.0 0.00 0.00 0.00 93 1013.6
20260509081018 57 0.0 0.0 0.00 0.00 0.00 93 1013.5
20260509080017 57 0.0 0.0 0.00 0.00 0.00 93 1013.5
20260509075017 57 0.0 0.0 0.00 0.00 0.00 93 1013.5
20260509074017 57 0.0 0.0 0.00 0.00 0.00 93 1013.5
20260509073017 56 0.0 0.0 0.00 0.00 0.00 93 1013.4
20260509072037 56 0.0 0.0 0.00 0.00 0.00 92 1013.3
20260509071017 56 0.0 0.0 0.00 0.00 0.00 92 1013.2
20260509070018 56 0.0 0.0 0.00 0.00 0.00 91 1013.2
20260509065017 56 0.0 0.0 0.00 0.00 0.00 91 1013.5
20260509064017 56 0.0 0.0 0.00 0.00 0.00 91 1013.9
20260509063017 57 0.0 0.0 0.00 0.00 0.00 91 1014.1
20260509062016 57 0.0 0.0 0.00 0.00 0.00 92 1014.5
20260509061017 56 0.0 0.0 0.00 0.00 0.00 92 1014.9
20260509060017 56 0.0 0.0 0.00 0.00 0.00 92 1015.1
20260509055017 56 0.0 0.0 0.00 0.00 0.00 91 1015.2
20260509054037 56 0.0 0.0 0.00 0.00 0.00 91 1015.1
20260509053017 56 0.0 0.0 0.00 0.00 0.00 90 1015.0
20260509052017 56 0.0 0.0 0.00 0.00 0.00 89 1015.0
20260509051016 56 0.0 0.0 0.00 0.00 0.00 89 1014.9
20260509050016 56 0.0 0.0 0.00 0.00 0.00 89 1014.9
20260509045017 56 0.0 0.0 0.00 0.00 0.00 88 1014.9
20260509044016 56 0.0 0.0 0.00 0.00 0.00 89 1014.7